STARLINK-36457, 67349

Orbit data source: Space-Track

STARLINK-36457, 67349 is a payload satellite owned by SpaceX/Seattle (US) in LEO that was launched on Fri, 09 Jan 2026 UTC via an FALCON 9 launch vehicle from the Air Force Eastern Test Range (AFETR). Payload-class satellites include a variety of spacecraft equipped with specific instruments for various scientific and technological missions. These include communications satellites like Starlink; space stations such as the ISS; scientific satellites like the Hubble; Earth observation satellites from companies like Planet Labs, Umbra, and HawkEye 360; GPS; miniature CubeSats for education and research; and military/defense satellites.

Loading next visibility...
Identifier
67349, 2026-003R
Orbit
LEO
Country
Flag of USUS
Related business
Manufacturer
SpaceX/Seattle
Mission
Operational Commercial Communications
Bus & Motor
STARLINK V2MO, Unknown motor
Mass
575 kg wet, ~530 kg dry
Launch date (UTC)
2026-01-09 (5 months ago)
Launch vehicle
FALCON 9
Launch site
Air Force Eastern Test Range (AFETR)
Object type
Payload
Rocket body
Debris
Shape & HBR
Box + 2 Pan, 17.7 m
Radar Cross Section
36.964 m², Large (>1 m²)

Expand to show TLE details & history
Last TLE update: 15 hours ago

TLE from 15 hours ago
0 STARLINK-36457
1 67349U 26003R   26171.27644238  .00016720  00000-0  61507-3 0  9991
2 67349  43.0109   7.6749 0004382 267.0300  93.0051 15.27609515 24517
Epoch: 2026-06-20T06:38Z
TLE epoch observation values (Epoch: 2026-06-20T06:38:04.621Z)
Latitude
0.00002°
Longitude
-0.33772°
Altitude
482.896 km
Speed
7.626 km/s
True Right ascension
00h 30m 41s
True Declination
0° 00' 00"
Sunlit
Object was in daylight at epoch
Visualization orbit readout
Latitude
Unknown
Longitude
Unknown
Altitude
Unknown
Speed
Unknown
Apparent Right ascension
Unknown
Apparent Declination
Unknown
Sunlit
N/A
Visualization observer readout
Local Sidereal Time
08:42:11
Azimuth
Unknown
Elevation
Unknown
Doppler factor
Unknown
Orbital elements
Apogee altitude
487.911 km
Perigee altitude
481.897 km
Semi-major axis
6,863.041 km
Eccentricity
0.00044
Inclination
43.0109°
RAAN
7.6749°
Arg. of periapsis
267.03°
True anomaly
93.05524°
Mean anomaly
93.0051°
Eccentric anomaly
93.03017°
Mean motion
3.81741 °/min
Orbital period
94.3 mins
BSTAR
0.00061507
Loading maneuver chart data...
Computing Atmospheric mass density...
Loading historical data...
Loading historical data...
Loading historical data...
Loading historical data...
Loading historical data...
Loading historical data...
Loading historical data...

Documentation

Showing up to 5 results
|